TimeEDT,TemperatureF,Dew PointF,Humidity,Sea Level PressureIn,VisibilityMPH,Wind Direction,Wind SpeedMPH,Gust SpeedMPH,PrecipitationIn,Events,Conditions,WindDirDegrees,DateUTC
12:51 AM,81.0,71.1,72,30.25,10.0,WSW,8.1,-,N/A,,Partly Cloudy,240,2013-07-15 04:51:00
1:51 AM,81.0,70.0,69,30.24,10.0,WSW,9.2,-,N/A,,Partly Cloudy,250,2013-07-15 05:51:00
2:51 AM,79.0,70.0,74,30.24,10.0,WSW,10.4,-,N/A,,Partly Cloudy,240,2013-07-15 06:51:00
3:51 AM,78.1,70.0,76,30.24,10.0,WSW,8.1,-,N/A,,Partly Cloudy,250,2013-07-15 07:51:00
4:51 AM,78.1,71.1,79,30.23,10.0,WSW,10.4,-,N/A,,Partly Cloudy,250,2013-07-15 08:51:00
5:51 AM,78.1,71.1,79,30.24,10.0,West,8.1,-,N/A,,Scattered Clouds,260,2013-07-15 09:51:00
6:51 AM,79.0,72.0,79,30.25,10.0,SW,3.5,-,N/A,,Scattered Clouds,220,2013-07-15 10:51:00
7:51 AM,82.9,72.0,69,30.25,10.0,West,4.6,-,N/A,,Partly Cloudy,260,2013-07-15 11:51:00
8:51 AM,86.0,71.1,61,30.24,10.0,West,9.2,-,N/A,,Partly Cloudy,280,2013-07-15 12:51:00
9:51 AM,89.1,72.0,57,30.23,10.0,West,8.1,-,N/A,,Scattered Clouds,280,2013-07-15 13:51:00
10:51 AM,91.0,71.1,52,30.22,10.0,NW,8.1,-,N/A,,Scattered Clouds,310,2013-07-15 14:51:00
11:51 AM,93.0,72.0,50,30.20,10.0,WNW,8.1,-,N/A,,Scattered Clouds,300,2013-07-15 15:51:00
12:51 PM,93.9,71.1,47,30.19,10.0,NW,12.7,19.6,N/A,,Scattered Clouds,320,2013-07-15 16:51:00
1:51 PM,91.9,71.1,50,30.17,10.0,NNW,9.2,18.4,N/A,,Mostly Cloudy,340,2013-07-15 17:51:00
2:51 PM,93.9,70.0,46,30.16,10.0,NNW,10.4,17.3,N/A,,Mostly Cloudy,330,2013-07-15 18:51:00
3:51 PM,97.0,68.0,39,30.15,10.0,NW,12.7,20.7,N/A,,Mostly Cloudy,310,2013-07-15 19:51:00
4:51 PM,95.0,69.1,43,30.14,10.0,NNW,15.0,24.2,N/A,,Mostly Cloudy,340,2013-07-15 20:51:00
5:51 PM,93.9,69.1,44,30.13,10.0,North,16.1,21.9,N/A,,Mostly Cloudy,350,2013-07-15 21:51:00
6:51 PM,93.9,66.9,41,30.13,10.0,WNW,13.8,23.0,N/A,,Mostly Cloudy,300,2013-07-15 22:51:00
7:51 PM,91.9,66.9,44,30.13,10.0,NW,11.5,-,N/A,,Mostly Cloudy,320,2013-07-15 23:51:00
8:51 PM,91.0,68.0,47,30.14,10.0,NW,9.2,-,N/A,,Mostly Cloudy,320,2013-07-16 00:51:00
9:51 PM,90.0,69.1,50,30.15,10.0,NNW,9.2,-,N/A,,Mostly Cloudy,340,2013-07-16 01:51:00
10:51 PM,89.1,69.1,52,30.15,10.0,NNW,6.9,-,N/A,,Mostly Cloudy,330,2013-07-16 02:51:00
11:51 PM,87.1,70.0,57,30.16,10.0,NNW,5.8,-,N/A,,Mostly Cloudy,330,2013-07-16 03:51:00